Regional Weather Roundup
Issued by NWS

Home | Current Version | Previous Version | Graphics & Text | Print | Product List | Glossary On
Versions: 1 2 3 4 5 6 7 8 9 10 11 12 13 14 15 16 17 18 19 20 21 22 23 24 25 26 27 28 29 30 31 32 33 34 35 36 37 38 39 40 41 42 43 44 45 46 47 48 49 50
000
ASUS45 KABQ 292010
RWRNM
NEW MEXICO REGIONAL WEATHER ROUNDUP
NATIONAL WEATHER SERVICE ALBUQUERQUE NM
200 PM MDT FRI JUL 29 2016

NOTE: "FAIR" MEANS FEW OR NO CLOUDS BELOW 12,000 FEET AGL WITH NO
       SIGNIFICANT WEATHER OR OBSTRUCTIONS TO VISION.

      THIS PRODUCT IS RELEASED AS TWO VERSIONS.  ONE VERSION NEAR
      THE TOP OF THE HOUR CONTAINING PRELIMINARY DATA FROM ALBUQUERQUE
      AND OTHER STATIONS.  A FINAL VERSION WITH ADDITIONAL DATA IS
      ISSUED ABOUT 10 MINUTES AFTER THE HOUR.

NMZ501-503-504-510>518-292100-
NORTHWEST PLATEAU/NORTHCENTRAL MOUNTAINS

CITY           SKY/WX    TMP DP  RH WIND       PRES   REMARKS
FARMINGTON     FAIR      95  32  11 CALM      30.07F
LOS ALAMOS     FAIR      76  38  24 S12G21    30.26F
SANTA FE       FAIR      85  47  26 SE6       30.20F
TAOS           CLOUDY    75  37  25 N24G41    30.26R
ANGEL FIRE     FAIR      78  38  24 W18G25    30.32F

$$
NMZ402-403-502-505>509-292100-
WESTCENTRAL MOUNTAINS/SOUTHWEST MOUNTAINS

CITY           SKY/WX    TMP DP  RH WIND       PRES   REMARKS
GALLUP         FAIR      91  34  13 VRB6      30.17F
GRANTS         FAIR      92  33  12 SW3       30.20F
SILVER CITY    FAIR      87  48  25 SE10G16   30.16F

$$
NMZ407-409-411-412-292100-
SOUTHERN DESERTS

CITY           SKY/WX    TMP DP  RH WIND       PRES   REMARKS
LORDSBURG      FAIR      97  50  20 SE15G23   30.05F
DEMING         FAIR      95  47  19 E9G16     30.07F
LAS CRUCES     FAIR      95  45  18 SE16      30.10F
HOLLOMAN AFB   FAIR      95  53  24 W9        30.05F
ALAMOGORDO     FAIR      93  52  24 N6        30.08F
T OR C         FAIR      90  46  21 NE16G24   30.13R

$$
NMZ519>523-292100-
CENTRAL VALLEYS/CENTRAL HIGHLANDS

CITY           SKY/WX    TMP DP  RH WIND       PRES   REMARKS
ALBUQUERQUE    FAIR      92  48  22 SW20G28   30.13F
DOUBLE EAGLE   PTSUNNY   93  52  24 SE15G28   30.17F
MORIARTY ARPT  FAIR      88  38  17 S15G22    30.21F
CLINES CORNERS FAIR      83  45  26 SW15G28   30.28F
BELEN          FAIR      92  39  16 S25       30.12F
SOCORRO        FAIR      84  41  22 S12       30.14F

$$
NMZ524>526-539-540-292100-
SOUTHCENTRAL MOUNTAINS

CITY           SKY/WX    TMP DP  RH WIND       PRES   REMARKS
RUIDOSO          N/A     82  36  18 SW13      30.29F

$$
NMZ527>531-292100-
NORTHEAST HIGHLANDS/NORTHEAST PLAINS

CITY           SKY/WX    TMP DP  RH WIND       PRES   REMARKS
LAS VEGAS      PTSUNNY   80  37  21 SW18G39   30.23S
RATON          FAIR      88  50  27 NE5       30.16F
CLAYTON        FAIR      86  60  41 S16G24    30.14F

$$
NMZ532>537-292100-
EASTCENTRAL PLAINS

CITY           SKY/WX    TMP DP  RH WIND       PRES   REMARKS
TUCUMCARI      FAIR      98  49  18 S20G26    30.04F HX  95
CANNON AFB     FAIR      91  54  27 S17G25    30.10F
CLOVIS AIRPORT FAIR      91  59  33 SE18G24   30.12F

$$
NMZ028-029-538-292100-
SOUTHEAST PLAINS

CITY           SKY/WX    TMP DP  RH WIND       PRES   REMARKS
ROSWELL        FAIR      96  50  20 SE16G23   30.06F
ARTESIA        FAIR      95  55  26 SE13G18   30.07F
CARLSBAD       FAIR      94  56  27 E15G21    30.05F
HOBBS          PTSUNNY   91  55  29 SE9G21    30.11F


$$




USA.gov is the U.S. government's official web portal to all federal, state and local government web resources and services.